TimePST,TemperatureF,Dew PointF,Humidity,Sea Level PressureIn,VisibilityMPH,Wind Direction,Wind SpeedMPH,Gust SpeedMPH,PrecipitationIn,Events,Conditions,WindDirDegrees,DateUTC
12:53 AM,44.1,37.0,76,29.79,10.0,East,3.5,-,N/A,,Clear,90,2013-11-16 08:53:00
1:53 AM,44.1,36.0,73,29.78,10.0,Calm,Calm,-,N/A,,Clear,0,2013-11-16 09:53:00
2:53 AM,44.1,36.0,73,29.78,10.0,Calm,Calm,-,N/A,,Clear,0,2013-11-16 10:53:00
3:53 AM,43.0,36.0,76,29.78,10.0,Calm,Calm,-,N/A,,Clear,0,2013-11-16 11:53:00
4:53 AM,42.1,36.0,79,29.78,10.0,NNE,3.5,-,N/A,,Clear,30,2013-11-16 12:53:00
5:53 AM,43.0,37.0,80,29.80,10.0,Calm,Calm,-,N/A,,Clear,0,2013-11-16 13:53:00
6:53 AM,44.1,39.0,82,29.82,10.0,Calm,Calm,-,N/A,,Scattered Clouds,0,2013-11-16 14:53:00
7:53 AM,48.0,42.1,80,29.83,10.0,Calm,Calm,-,N/A,,Partly Cloudy,0,2013-11-16 15:53:00
8:53 AM,52.0,43.0,71,29.85,10.0,WNW,3.5,-,N/A,,Partly Cloudy,300,2013-11-16 16:53:00
9:53 AM,57.0,42.1,57,29.86,10.0,SSW,9.2,-,N/A,,Clear,200,2013-11-16 17:53:00
10:53 AM,59.0,41.0,51,29.86,10.0,Variable,5.8,-,N/A,,Clear,0,2013-11-16 18:53:00
11:53 AM,61.0,39.0,44,29.83,10.0,Variable,5.8,-,N/A,,Clear,0,2013-11-16 19:53:00
12:53 PM,64.0,39.0,40,29.82,10.0,WNW,6.9,-,N/A,,Clear,300,2013-11-16 20:53:00
1:53 PM,64.9,39.0,39,29.82,10.0,West,6.9,-,N/A,,Clear,280,2013-11-16 21:53:00
2:53 PM,64.0,39.9,41,29.83,10.0,WNW,9.2,-,N/A,,Clear,290,2013-11-16 22:53:00
3:53 PM,63.0,42.1,46,29.84,10.0,West,10.4,-,N/A,,Clear,260,2013-11-16 23:53:00
4:53 PM,57.9,46.9,67,29.85,10.0,SSW,6.9,-,N/A,,Clear,200,2013-11-17 00:53:00
5:53 PM,55.9,48.0,75,29.87,10.0,SSW,8.1,-,N/A,,Clear,210,2013-11-17 01:53:00
6:53 PM,55.0,48.9,80,29.88,10.0,SSW,8.1,-,N/A,,Clear,210,2013-11-17 02:53:00
7:53 PM,55.0,50.0,83,29.90,10.0,SW,8.1,-,N/A,,Clear,220,2013-11-17 03:53:00
8:53 PM,54.0,50.0,86,29.91,10.0,SW,6.9,-,N/A,,Scattered Clouds,230,2013-11-17 04:53:00
9:03 PM,55.4,50.0,82,29.91,10.0,SW,10.4,-,N/A,,Mostly Cloudy,230,2013-11-17 05:03:00
9:53 PM,54.0,50.0,86,29.92,10.0,SW,4.6,-,N/A,,Mostly Cloudy,220,2013-11-17 05:53:00
10:53 PM,54.0,48.9,83,29.92,10.0,SSW,4.6,-,N/A,,Mostly Cloudy,200,2013-11-17 06:53:00
11:53 PM,53.1,48.0,83,29.93,10.0,SW,6.9,-,N/A,,Mostly Cloudy,230,2013-11-17 07:53:00